Location: Knowlton
(51.2333°N, 1.2667°E)
Time: 23:32:19
(UTC+00:00)

ZACube-1 - Pass Details

Date: 07 December 2021
Orbit: 582 x 665 km, 97.6° (Epoch: 21 January)

Event Time Altitude Azimuth Distance (km) Brightness Sun altitude
Rises 03:50:01 0° 19° (NNE) 3,007 ? -35.5°
Reaches altitude 10° 03:52:22 10° 26° (NNE) 2,095 ? -35.1°
Enters shadow 03:52:32 11° 27° (NNE) 2,029 ? -35.1°
